INTELSAT 33E DEB, 61994

Orbit data source: Space-Track

INTELSAT 33E DEB, 61994 is space debris in GEO originally from a launch on Wed, 24 Aug 2016 UTC launched from the French Guiana (FRGUI). Debris objects in space refer to the collection of defunct objects orbiting the Earth. Examples of debris include non-operational satellites, rocket bodies, and fragments generated from explosions, collisions, or faulty payload assembly.

Loading next visibility...
Identifier
61994, 2016-053L
Orbit
GEO
Country
Flag of USUS / ITSO
Related business
Manufacturer
Boeing/ES
Mission
Spacecraft
Bus & Motor
Unknown
Mass
Unknown
Launch date (UTC)
Icon of a cake. It is the launch day of the satellite!2016-08-24 (10 years ago)
Launch vehicle
Unknown
Launch site
French Guiana (FRGUI)
Object type
Payload
Rocket body
Debris
Shape & HBR
Unknown shape, 1.1 m
Radar Cross Section
Large (>1 m²)

Expand to show TLE details & history
Last TLE update: 1 day ago

TLE from 1 day ago
0 INTELSAT 33E DEB
1 61994U 16053L   26234.57201764 -.00000200  00000-0  00000-0 0  9996
2 61994   1.7524  84.2291 0024689 214.2245 145.8982  1.00519052  6764
Epoch: 2026-08-22T13:43Z
TLE epoch observation values (Epoch: 2026-08-22T13:43:42.324Z)
Latitude
0.00001°
Longitude
-92.29206°
Altitude
35,803.1 km
Speed
3.071 km/s
True Right ascension
05h 38m 03s
True Declination
0° 00' 00"
Sunlit
Object was in daylight at epoch
Visualization orbit readout
Latitude
Unknown
Longitude
Unknown
Altitude
Unknown
Speed
Unknown
Apparent Right ascension
Unknown
Apparent Declination
Unknown
Sunlit
N/A
Visualization observer readout
Local Sidereal Time
15:55:38
Azimuth
Unknown
Elevation
Unknown
Doppler factor
Unknown
Orbital elements
Apogee altitude
35,822.422 km
Perigee altitude
35,614.557 km
Semi-major axis
42,096.627 km
Eccentricity
0.00247
Inclination
1.7524°
RAAN
84.2291°
Arg. of periapsis
214.2245°
True anomaly
146.05642°
Mean anomaly
145.8982°
Eccentric anomaly
145.97735°
Mean motion
0.25129 °/min
Orbital period
1,432.62 mins
BSTAR
0
Loading maneuver chart data...
Computing Atmospheric mass density...
Loading historical data...
Loading historical data...
Loading historical data...
Loading historical data...
Loading historical data...
Loading historical data...
Loading historical data...

Documentation

Showing up to 5 results
|